Simultaneous Nadir Overpasses (SNOs) Predictions

Prediction of SNOs near US between NOAA-19 and NPP Satellite Orbit:

Table of predicted SNOs near US for the next 10.0 days since TLE Epoch: 4/17/2013
Index Date (NOAA-19) Time (NOAA-19) NOAA-19 Lat,Lon Date (NPP) Time (NPP) NPP Lat,Lon Distance(km) Time Diff (sec)
1 04/25/2013 18:43:03 49.99, -87.13 04/25/2013 18:41:40 49.54, -89.78 196.68 83
2 04/25/2013 20:25:07 49.96,-112.64 04/25/2013 20:23:10 49.54,-115.16 186.86 117
3 04/26/2013 07:05:29 30.64, -76.75 04/26/2013 06:59:54 31.01, -78.72 192.40 335
4 04/26/2013 08:48:09 28.58,-102.84 04/26/2013 08:41:59 28.96,-104.66 182.00 370




NCC Satellite Simultaneous Nadir Overpasses (SNOs) Prediction Service
